Location: Auckland
(36.8670°S, 174.7670°E)
Time: 07:44:27
(UTC+12:00)

A-11 Canister half - Pass Details

Date: 27 July 2019
Orbit: 1526 x 1683 km, 47.3° (Epoch: 16 August)

Event Time Altitude Azimuth Distance (km) Brightness Sun altitude
Rises 05:11:04 0° 345° (NNW) 4,665 11.4 -26.5°
Reaches altitude 10° 05:14:35 10° 355° (N) 3,685 11.0 -25.8°
Maximum altitude 05:22:13 30° 52° (NE) 2,500 10.6 -24.3°
Drops below altitude 10° 05:29:55 10° 107° (ESE) 3,744 11.9 -22.8°
Sets 05:33:30 0° 117° (ESE) 4,751 12.4 -22.0°
